Bow Valley, Alberta

1:09 PM MDT on August 21, 2017 (GMT -0600)
Bow Valley

Weather History for CWXA - November, 2013

Change the Weather History Date:

Tuesday, November 26, 2013

  Actual Average Record
Temperature  
Mean Temperature 28 °F -  
Max Temperature 41 °F - - ()
Min Temperature 14 °F - - ()
Degree Days  
Heating Degree Days 38    
Moisture  
Dew Point 22 °F    
Average Humidity 63    
Maximum Humidity 76    
Minimum Humidity 37    
Precipitation  
Precipitation 0.00 in - - ()
Sea Level Pressure  
Sea Level Pressure 30.18 in    
Wind  
Wind Speed 8 mph ()    
Max Wind Speed 15 mph    
Max Gust Speed 25 mph    
T = Trace of Precipitation, MM = Missing Value Source: Averaged Metar Reports

Daily Weather History Graph

Daily Weather History Graph

Search for Another Location

Airport or City:

Trip Planner

Search our weather history database for the weather conditions in past years. The results will help you decide how hot, cold, wet, or windy it might be!

Date:

Astronomy

Nov. 26, 2013 Rise Set
Actual Time 8:15 AM MST 4:39 PM MST
Civil Twilight 7:37 AM MST 5:18 PM MST
Nautical Twilight 6:55 AM MST 5:59 PM MST
Astronomical Twilight 6:15 AM MST 6:39 PM MST
Moon 12:39 AM MST (11/26) 1:28 PM MST (11/26)
Length of Visible Light 9h 40m
Length of Day
8h 24m
Last Quarter, 40% of the Moon is Illuminated
Nov 26
Last Quarter
Dec 2
New
Dec 9
First Quarter
Dec 17
Full
Dec 25
Last Quarter

Hourly Weather History & Observations

Time (MST) Temp. Windchill Dew Point Humidity Pressure Visibility Wind Dir Wind Speed Gust Speed Precip Events Conditions
12:00 AM 28.6 °F 19.3 °F 21.4 °F 74% 30.36 in - SW 10.4 mph 19.6 mph N/A   Unknown
1:00 AM 28.4 °F 20.4 °F 21.6 °F 76% 30.35 in - WSW 8.1 mph 18.4 mph N/A   Unknown
2:00 AM 30.0 °F 21.7 °F 21.7 °F 71% 30.33 in - WSW 9.2 mph - N/A   Unknown
3:00 AM 30.4 °F 22.2 °F 21.6 °F 70% 30.32 in - SW 9.2 mph - N/A   Unknown
4:00 AM 29.7 °F 22.8 °F 21.7 °F 72% 30.31 in - SW 6.9 mph - N/A   Unknown
5:00 AM 30 °F - 22 °F 61% 30.29 in - SW 6.9 mph - -  
5:00 AM 30.4 °F 23.6 °F 21.7 °F 70% 30.29 in - SW 6.9 mph 17.3 mph N/A   Unknown
6:00 AM 30.4 °F 24.5 °F 21.6 °F 70% 30.27 in - SSW 5.8 mph - N/A   Unknown
7:00 AM 30.9 °F 21.2 °F 21.9 °F 69% 30.25 in - WSW 12.7 mph 25.3 mph N/A   Unknown
8:00 AM 32.0 °F 23.0 °F 22.5 °F 68% 30.23 in - WSW 11.5 mph 19.6 mph N/A   Unknown
9:00 AM 31.1 °F 21.9 °F 21.9 °F 69% 30.18 in - WSW 11.5 mph 20.7 mph N/A   Unknown
10:00 AM 30.4 °F 21.0 °F 21.6 °F 70% 30.19 in - WSW 11.5 mph 19.6 mph N/A   Unknown
11:00 AM 31 °F - 22 °F 58% 30.17 in - WSW 11.5 mph - -  
11:00 AM 31.1 °F 21.9 °F 21.9 °F 69% 30.17 in - WSW 11.5 mph 23.0 mph N/A   Unknown
12:00 PM 34.3 °F 27.0 °F 22.6 °F 62% 30.14 in - WSW 9.2 mph 18.4 mph N/A   Unknown
1:00 PM 38.1 °F 31.7 °F 23.2 °F 55% 30.11 in - WSW 9.2 mph - N/A   Unknown
2:00 PM 40.1 °F 35.3 °F 22.1 °F 49% 30.08 in - WSW 6.9 mph - N/A   Unknown
3:00 PM 38.5 °F 32.7 °F 22.3 °F 52% 30.08 in - WSW 8.1 mph 18.4 mph N/A   Unknown
4:00 PM 39.0 °F 34.0 °F 21.4 °F 49% 30.07 in - WSW 6.9 mph - N/A   Unknown
5:00 PM 38 °F - 21 °F 37% 30.08 in - WSW 10.4 mph - -  
5:00 PM 37.6 °F 30.5 °F 21.2 °F 52% 30.08 in - WSW 10.4 mph 18.4 mph N/A   Unknown
6:00 PM 36.1 °F 29.9 °F 21.2 °F 55% 30.09 in - WSW 8.1 mph - N/A   Unknown
7:00 PM 34.3 °F 26.5 °F 21.7 °F 60% 30.09 in - WSW 10.4 mph 19.6 mph N/A   Unknown
8:00 PM 33.6 °F 27.5 °F 21.4 °F 61% 30.09 in - SW 6.9 mph - N/A   Unknown
9:00 PM 31.5 °F 24.2 °F 21.0 °F 65% 30.11 in - WSW 8.1 mph - N/A   Unknown
10:00 PM 30.6 °F 21.2 °F 21.0 °F 68% 30.11 in - WSW 11.5 mph 20.7 mph N/A   Unknown
11:00 PM 30 °F - 20 °F 56% 30.11 in - WSW 15.0 mph - -  
11:00 PM 30.4 °F 19.5 °F 20.5 °F 67% 30.11 in - WSW 15.0 mph 21.9 mph N/A   Unknown